Location: ????????
(48.4751°N, 37.6926°E)
Time: 20:14:51
(UTC+00:00)

CZ-4B R/B - Pass Details

Date: 20 January 2021
Orbit: 809 x 882 km, 99.1° (Epoch: 02 March)

Event Time Altitude Azimuth Distance (km) Brightness Sun altitude
Rises 14:54:10 0° 165° (SSE) 3,404 6.4 -7.5°
Reaches altitude 10° 14:56:31 10° 166° (SSE) 2,483 5.7 -7.9°
Maximum altitude 15:02:03 83° 254° (WSW) 880 3.4 -8.8°
Drops below altitude 10° 15:07:44 10° 344° (NNW) 2,540 5.7 -9.6°
Sets 15:10:09 0° 345° (NNW) 3,488 6.4 -10.0°
